Location: Br�touar�
(48.6390°N, 4.2326°W)
Time: 13:12:44
(UTC+00:00)

Daily predictions for brighter satellites

Satellite Brightness Start Highest point End
(mag) Time Altitude Azimuth Time Altitude Azimuth Time Altitude Azimuth
NOSS 3-4 (A) 4.3 20:29:23 10° WSW 20:35:09 55° NW 20:41:28 10° NE
NOSS 3-4 (C) 4.3 20:29:29 10° WSW 20:35:15 56° NW 20:41:34 10° NE
BREEZE-M DEB (TANK) 2.1 20:33:23 10° WNW 20:35:59 72° SSW 20:41:50 10° ESE
Helios 1A Rocket 4.2 20:32:28 10° S 20:36:18 41° W 20:40:11 10° NNW
SPOT 1/Viking Rocket 4.0 20:32:24 10° SE 20:37:21 46° ENE 20:42:20 10° N
Cosmos 1697 Rocket 3.8 20:33:01 10° NW 20:38:20 42° WSW 20:43:37 10° S
Cosmos 1076 Rocket 3.7 20:34:19 10° S 20:38:33 56° E 20:42:51 10° NNE
ATLAS 5 CENTAUR R/B 4.3 20:36:31 10° NNW 20:39:42 17° NNE 20:43:14 10° NE
SAR-Lupe-4 3.9 20:36:48 10° N 20:40:24 71° WNW 20:43:57 10° SSW
OBJECT-B 3.2 20:39:04 10° SSW 20:41:39 22° W 20:44:17 10° NW
ATLAS 2AS CENTAUR R/B 3.2 20:35:56 10° SW 20:43:53 83° NW 20:51:38 10° NE
Cosmos 773 Rocket 4.2 20:41:47 10° SSW 20:46:59 80° WNW 20:52:12 10° NNE
ATLAS 3B R/B 3.0 20:41:55 10° NW 20:49:01 80° SW 20:56:23 10° SSE
Cosmos 1833 Rocket 3.8 20:43:35 10° SW 20:49:04 51° NW 20:54:35 10° NNE
Terra 3.4 20:48:23 10° ESE 20:51:58 22° ENE 20:55:33 10° NNE
Cosmos 1842 Rocket 4.4 20:47:50 10° NNW 20:52:13 54° W 20:56:35 10° S
SPOT 5 3.9 20:50:52 10° ESE 20:54:29 27° ENE 20:58:11 10° N
Cosmos 2082 Rocket 2.3 20:50:01 10° SSW 20:55:39 83° WNW 21:01:23 10° NNE
Cosmos 1092 Rocket 4.3 20:50:39 10° SSE 20:56:36 49° E 21:02:39 10° NNE
Cosmos 1633 2.7 20:54:16 10° SSW 20:57:52 80° W 21:01:31 10° N
Cosmos 2278 4.0 20:52:43 10° NNW 20:58:20 67° WSW 21:03:56 10° SSE
BREEZE-M DEB (TANK) 1.7 20:57:58 10° WSW 21:01:05 67° SSE 21:02:55 10° E
Cosmos 332 Rocket 3.8 20:59:28 10° NNW 21:04:23 77° ENE 21:08:58 12° SSE
ERS-1 Rocket 3.8 21:00:35 12° SE 21:04:52 38° ENE 21:09:30 10° N
Cosmos 2360 Rocket 3.4 21:00:15 10° NNW 21:05:14 31° NE 21:10:08 10° ESE
Cosmos 1606 3.8 21:01:52 10° NNW 21:05:28 43° W 21:09:04 10° SSW
Cosmos 158 Rocket 4.0 21:02:22 10° S 21:07:25 60° ESE 21:12:38 10° NNE
Cosmos 2026 Rocket 4.3 21:03:31 10° SSE 21:09:35 50° E 21:15:35 10° NNE
GP-B 3.5 21:08:11 10° NNE 21:12:29 46° E 21:16:13 13° SSE
ISS -3.0 21:10:28 10° WNW 21:13:41 41° SSW 21:15:56 17° SSE
Cosmos 2333 Rocket 3.9 21:11:09 10° N 21:15:30 22° NE 21:19:49 10° E
Landsat 7 4.4 21:12:06 10° S 21:16:46 57° W 21:21:29 10° NNW
Nadezhda 4 Rocket 4.2 21:10:54 10° SSW 21:17:05 77° W 21:23:22 10° N
IGS 5A 4.5 21:13:40 10° S 21:17:38 44° W 21:21:38 10° NNW
Meteor 1-26 Rocket 4.4 21:12:39 10° N 21:18:39 73° ENE 21:23:55 13° SSE
Spot 2 Rocket 3.6 21:14:48 13° SSE 21:19:23 69° ENE 21:24:29 10° N
SPOT 3 Rocket 4.0 21:15:01 10° S 21:20:10 63° WSW 21:25:23 10° NNW
Cosmos 1812 3.9 21:17:32 10° NNE 21:20:55 28° ENE 21:23:03 17° ESE
Cosmos 1680 Rocket 4.0 21:17:51 10° S 21:22:43 39° ESE 21:27:35 10° NE
CZ-2C R/B 3.6 21:20:10 10° NNE 21:24:43 75° ESE 21:29:10 10° S
Cosmos 1980 Rocket 3.6 21:21:34 10° NW 21:26:35 34° WSW 21:31:35 10° SSW
Okean 3 Rocket 4.2 21:24:58 16° SSE 21:28:05 39° E 21:32:18 10° NNE
RESURS DK-1 4.0 21:24:12 10° WSW 21:28:05 38° NW 21:32:00 10° NNE
USA 245 3.8 21:25:06 11° S 21:30:01 78° WSW 21:34:11 10° NNW
USA 234 4.2 21:25:30 10° E 21:31:43 47° NNE 21:37:56 10° WNW
Cosmos 1933 3.8 21:32:48 10° NNW 21:36:49 59° W 21:40:22 13° S
Cosmos 2322 Rocket 2.2 21:32:08 10° NNW 21:37:48 75° ENE 21:41:46 20° SE
Cosmos 304 Rocket 4.2 21:33:52 10° NNW 21:38:35 58° WSW 21:42:24 15° S
Cosmos 1428 Rocket 4.4 21:32:47 10° S 21:38:55 80° E 21:45:03 10° N
ERS-2 4.4 21:35:58 10° N 21:39:06 27° WNW 21:42:11 10° SW
Resurs 01 Rocket 3.4 21:37:41 10° SSW 21:41:32 28° W 21:45:24 10° NW
Cosmos 2151 3.8 21:39:07 10° SSW 21:43:15 52° WNW 21:47:27 10° N
CARTOSAT-1 3.9 21:46:36 17° S 21:49:54 63° WSW 21:54:13 10° NNW
Cosmos 2084 3.9 21:48:52 21° S 21:50:56 35° ESE 21:54:45 10° ENE
Cosmos 1553 Rocket 4.0 21:45:19 10° N 21:51:24 70° E 21:55:36 21° SSE
Gbstr 26 Del rocket 3.1 21:50:08 10° WNW 21:53:45 48° SSW 21:55:26 29° SSE
Meteor 2-3 Rocket 4.1 21:48:37 10° SSW 21:54:14 68° WNW 21:59:59 10° N
Cosmos 1862 3.6 21:57:03 29° SSE 21:58:42 48° E 22:02:32 10° NNE
Cosmos 2219 Rocket 3.4 21:54:10 10° NNW 21:59:11 32° NE 22:02:58 16° ESE
Cosmos 1624 Rocket 4.0 21:54:45 10° NNW 21:59:59 75° ENE 22:02:57 26° SSE
Cosmos 1782 3.5 21:59:06 10° NNW 22:03:01 51° W 22:05:39 19° SSW
Cosmos 1515 Rocket 3.8 22:00:25 10° N 22:04:48 55° ENE 22:06:43 30° SE
NOSS 2-1 (E) 3.5 22:05:22 35° ESE 22:05:22 35° ESE 22:08:14 10° NE
H-2A R/B 4.0 22:02:00 10° NNE 22:05:58 40° E 22:07:14 31° SE
SL-16 R/B 2.6 22:00:44 10° NW 22:06:16 56° WSW 22:09:55 21° S
ARIANE 5 R/B 3.3 22:04:24 19° S 22:07:27 51° W 22:11:50 10° NNW
NOSS 3-1 (C) 4.3 22:00:53 10° NW 22:08:04 63° NE 22:14:30 19° ESE
Cosmos 1271 Rocket 4.3 22:05:31 10° NNW 22:09:05 32° W 22:12:03 13° SSW
COSMOS 2455 3.8 22:09:10 24° SE 22:10:28 26° ESE 22:15:19 10° NE
Cosmos 2237 4.2 22:04:46 10° NNW 22:10:31 84° WSW 22:13:45 27° SSE
USA 276 3.1 22:07:52 10° W 22:10:43 30° SSW 22:10:46 30° SSW
Cosmos 1420 Rocket 4.2 22:05:39 10° NNW 22:10:58 64° ENE 22:13:43 28° SE
COSMOS 2428 3.8 22:08:45 10° NNW 22:13:57 34° NE 22:17:35 18° ESE
Meteor 2-6 Rocket 4.1 22:10:22 10° NNW 22:15:49 86° W 22:18:52 27° S
Cosmos 1655 Rocket 4.2 22:12:44 25° SSE 22:16:25 57° E 22:22:40 10° NNE
Cosmos 1151 Rocket 3.8 22:13:40 10° NNW 22:17:53 48° W 22:20:30 21° SSW
Cosmos 1766 Rocket 3.9 22:14:49 16° SSW 22:18:13 63° WNW 22:22:35 10° N
Cosmos 1417 Rocket 4.5 22:12:18 10° N 22:18:41 90° NNW 22:22:33 25° S
S3M 4.0 22:15:18 10° N 22:21:43 80° E 22:25:25 27° SSE
USA 229 DEB 4.5 22:15:11 10° NW 22:22:13 53° NE 22:28:17 16° ESE
USA 229 4.5 22:15:16 10° NW 22:22:18 52° NE 22:28:24 16° ESE
Cosmos 1328 Rocket 4.0 22:17:59 10° NNW 22:22:21 57° W 22:24:43 26° SSW
ATLAS 5 CENTAUR R/B 3.3 22:20:50 10° NNW 22:25:43 37° NE 22:30:39 13° E
Cosmos 1174 3.2 22:23:10 10° NNW 22:26:10 62° NE 22:26:29 56° E
Terra 2.2 22:26:49 26° S 22:29:20 57° W 22:34:04 10° NNW
Cosmos 1452 Rocket 4.0 22:25:20 10° NNW 22:30:27 49° ENE 22:32:49 29° ESE
COSMOS 2487 4.2 22:31:49 19° ENE 22:31:49 19° ENE 22:33:32 10° NE
SPOT 5 3.8 22:30:02 20° SSW 22:32:28 35° W 22:36:32 10° NNW
ALOS 2 4.2 22:33:57 19° E 22:35:32 23° ENE 22:39:00 10° N
USA 267 3.4 22:33:05 10° ENE 22:39:25 50° SE 22:45:44 10° SSW
Cosmos 2056 Rocket 4.0 22:34:50 10° NNW 22:40:04 54° WSW 22:42:28 30° SSW
SL-27 R/B 2.5 22:39:50 43° SSW 22:40:55 78° WNW 22:44:32 10° NNE
Meteor 1-27 Rocket 3.7 22:36:06 10° N 22:41:46 76° ENE 22:44:14 35° SSE
NOSS 3-1 (A) 4.3 22:35:33 10° NW 22:42:46 64° NE 22:48:48 21° ESE
ERS-1 Rocket 4.3 22:40:34 17° SSW 22:43:42 33° W 22:48:14 10° NNW
NOSS 2-1 (C) 3.1 22:48:04 32° WSW 22:49:25 67° NW 22:52:50 10° NE
Cosmos 2360 Rocket 2.5 22:44:03 10° NW 22:49:32 55° WSW 22:51:53 33° S
Cosmos 1805 Rocket 4.0 22:49:13 41° ESE 22:49:56 45° E 22:54:11 10° NNE
IRIDIUM 104 4.3 22:45:14 10° N 22:50:28 70° E 22:52:18 40° SSE
NOSS 2-1 (D) 3.4 22:55:30 26° WSW 22:57:08 56° NW 23:00:32 10° NE
IRIDIUM 114 4.2 22:54:22 10° N 22:59:38 84° E 23:01:25 42° S
Cosmos 1833 4.2 22:56:03 22° SSW 23:00:00 86° WNW 23:05:49 10° NNE
Cosmos 2333 Rocket 2.1 22:54:50 10° NNW 23:00:32 87° WSW 23:02:38 41° SSE
Cosmos 1500 Rocket 3.5 22:59:40 44° SSW 23:01:01 80° W 23:05:29 10° N
IRIDIUM 103 4.3 23:03:32 10° N 23:08:47 83° W 23:10:34 43° S
Cosmos 972 Rocket 3.9 23:07:27 42° S 23:09:14 74° ESE 23:14:15 10° NNE
COBE Rocket 3.7 23:09:07 51° S 23:10:18 86° W 23:15:01 10° NNW
Cosmos 2322 3.7 23:05:01 10° NNW 23:10:46 78° WSW 23:12:44 43° SSE
Cosmos 292 Rocket 4.4 23:06:22 10° NW 23:10:54 44° WSW 23:12:09 36° SW
NOSS 0 Rocket 4.4 23:06:45 10° NNW 23:12:54 55° NE 23:16:01 28° ESE
USA 234 3.3 23:10:02 23° ESE 23:14:22 84° NNE 23:20:58 10° NW
Cosmos 2297 Rocket 3.8 23:17:11 19° ESE 23:17:25 19° E 23:21:15 10° ENE
Lacrosse 5 3.9 23:21:58 14° E 23:21:58 14° E 23:23:10 10° E
Cosmos 1743 Rocket 4.1 23:19:29 35° SW 23:21:01 53° WNW 23:25:24 10° N
Cosmos 2237 Rocket 3.2 23:15:42 10° NNW 23:21:04 41° NE 23:24:02 23° ESE
Cosmos 2322 Rocket 4.0 23:17:18 10° NW 23:21:12 20° W 23:23:35 15° SW
Cosmos 1500 4.2 23:26:57 35° E 23:26:57 35° E 23:30:11 10° NNE
Cosmos 2227 Rocket 3.9 23:28:53 17° ESE 23:29:09 17° E 23:32:46 10° ENE
Sich 1 2.9 23:28:46 66° S 23:29:23 89° E 23:33:45 10° N
Cosmos 2285 Rocket 4.0 23:24:04 10° NNW 23:30:21 70° WSW 23:32:33 42° S
Okean 1 3.3 23:27:34 10° N 23:31:35 67° E 23:31:46 66° E
Meteor 1-25 Rocket 4.1 23:30:16 47° S 23:31:58 80° E 23:37:33 10° NNE
Cosmos 1633 Rocket 3.4 23:33:06 47° ESE 23:33:19 47° E 23:37:31 10° NNE
Cosmos 494 Rocket 3.9 23:33:16 54° SSE 23:34:14 67° ESE 23:39:20 10° NNE
Cosmos 2315 Rocket 4.4 23:28:20 10° NNW 23:34:30 57° W 23:37:07 34° SSW
Cosmos 1666 Rocket 3.5 23:37:07 61° SE 23:37:29 64° E 23:41:54 10° NNE
Gblst 52 Del rocket 4.5 23:33:13 10° WNW 23:39:30 78° SSW 23:43:37 27° SE
Cosmos 1048 Rocket 3.9 23:39:38 48° SSW 23:41:07 86° WNW 23:46:17 10° NNE
Cosmos 2228 Rocket 4.0 23:38:40 10° NNW 23:42:45 37° W 23:43:34 34° WSW
Cosmos 2219 Rocket 2.5 23:37:58 10° NW 23:43:24 51° WSW 23:44:40 43° SSW
Cosmos 489 Rocket 4.4 23:43:32 39° SSW 23:46:06 89° ESE 23:52:31 10° NNE
Meteor 1-19 Rocket 4.1 23:42:24 10° NNW 23:48:05 84° W 23:49:32 51° S
SL-16 R/B 3.9 23:43:20 10° NNW 23:48:09 28° NE 23:52:43 11° ESE
Cosmos 1602 3.9 23:52:57 62° W 23:53:04 62° WNW 23:56:54 10° N
Cosmos 1515 4.3 23:52:10 10° NNW 23:55:40 45° W 23:55:40 45° W
